ATLAS CENTAUR R/B

Last updated on Sun Jun 21 2026 00:02:14 GMT+0000 (Coordinated Universal Time)

1 06155U 72065B 26171.38538159 .00000750 00000+0 10485-3 0 9998 2 06155 35.0020 63.7919 0033227 156.1715 204.0531 14.77926028856467
UTC large
Height (km)
Speed (km/s)
/
Latitude / Longitude
Inclination (degrees)
Orbital Period (minutes)
Azimuth
Elevation
Range (km)
Doppler Factor

Next 0 passes for location: London (51.5072 / 0.1276)

No passes found over London.
ATLAS CENTAUR R/B